Regional Weather Roundup
Issued by NWS

Home | Current Version | Previous Version | Text Only | Print | Product List | Glossary Off
Versions: 1 2 3 4 5 6 7 8 9 10 11 12 13 14 15 16 17 18 19 20 21 22 23 24 25 26 27 28 29 30 31 32 33 34 35 36 37 38 39 40 41 42 43 44 45 46 47 48 49 50

000
ASUS43 KMKX 021721
RWRWI

WISCONSIN REGIONAL WEATHER ROUNDUP
NATIONAL WEATHER SERVICE MILWAUKEE/SULLIVAN WI
1200 PM CDT THU JUL 02 2015

NOTE: "FAIR" INDICATES FEW OR NO CLOUDS BELOW 12,000 FEET WITH NO
SIGNIFICANT WEATHER AND/OR OBSTRUCTIONS TO VISIBILITY.

WIZ001-002-006>008-014>016-023>028-021800-
NORTHWEST WISCONSIN

CITY           SKY/WX    TMP DP  RH WIND       PRES   REMARKS
SUPERIOR ARPT  SUNNY     74  60  60 SW7       30.01S
ASHLAND        SUNNY     74  58  57 W7        30.02F
HAYWARD        SUNNY     71  52  50 SE3       30.05F
SIREN          NOT AVBL
CUMBERLAND     NOT AVBL
RICE LAKE      SUNNY     71  47  43 E7        30.06F
CHETEK         NOT AVBL
LADYSMITH      NOT AVBL
EAU CLAIRE     SUNNY     70  51  51 S5        30.04F
MENOMONIE      NOT AVBL
NEW RICHMOND   SUNNY     72  51  48 SE5       30.04S
OSCEOLA        NOT AVBL
$$

WIZ003>005-009-010-017-018-021800-
NORTH CENTRAL WISCONSIN

CITY           SKY/WX    TMP DP  RH WIND       PRES   REMARKS
MANITOWISH WTR NOT AVBL
ARBOR VITAE    SUNNY     72  51  48 SE8       30.06F
WOODRUFF       SUNNY     72  51  48 SE8       30.06F
RHINELANDER    SUNNY     69  48  47 S7        30.08S
EAGLE RIVER    NOT AVBL
LAND O LAKES   SUNNY     71  44  38 W3        30.07S
PHILLIPS       SUNNY     71  51  49 W5        30.05F
TOMAHAWK       NOT AVBL
MEDFORD        NOT AVBL
MERRILL        NOT AVBL
$$

WIZ029-030-035-036-043>047-021800-
CENTRAL WISCONSIN

CITY           SKY/WX    TMP DP  RH WIND       PRES   REMARKS
WAUSAU         SUNNY     70  44  39 VRB5      30.06F
MOSINEE        SUNNY     66  45  45 CALM      30.08F
MARSHFIELD     SUNNY     69  49  48 SE6       30.07S
STEVENS POINT  SUNNY     65  44  46 S3        30.07F
WAUPACA        NOT AVBL
WAUTOMA        SUNNY     67  44  43 NE7       30.07F
WISC RAPIDS    SUNNY     70  44  39 NE7       30.08S
CAMP DOUGLAS   SUNNY     68  55  62 VRB1      30.06F
$$

WIZ011>013-019>022-031-037>040-048>050-021800-
NORTHEAST WISCONSIN

CITY           SKY/WX    TMP DP  RH WIND       PRES   REMARKS
ANTIGO         SUNNY     67  46  47 SW5       30.08F
SHAWANO        NOT AVBL
OCONTO         SUNNY     67  46  46 NE3       30.07S
STURGEON BAY   SUNNY     66  46  48 CALM      30.09S
GREEN BAY      SUNNY     70  51  51 NE8       30.07S
MANITOWOC      SUNNY     65  49  56 MISG      30.07S
APPLETON       SUNNY     66  45  45 E6        30.08S
CLINTONVILLE   NOT AVBL
OSHKOSH        SUNNY     66  48  52 NE10      30.06S
$$

WIZ032>034-041-042-053>061-021800-
SOUTHWEST WISCONSIN

CITY           SKY/WX    TMP DP  RH WIND       PRES   REMARKS
LA CROSSE      MOSUNNY   70  52  52 CALM      30.05
SPARTA         NOT AVBL
VIROQUA        NOT AVBL
BOSCOBEL       MOSUNNY   69  52  54 VRB7      30.05F
PRAIRIE DU CHI NOT AVBL
PLATTEVILLE    NOT AVBL
$$

WIZ056-057-062-063-064-067-068-021800-
SOUTH CENTRAL WISCONSIN

CITY           SKY/WX    TMP DP  RH WIND       PRES   REMARKS
REEDSBURG      NOT AVBL
BARABOO/DELLS  SUNNY     66  47  51 N6        30.06F
LONE ROCK      SUNNY     68  48  48 N7        30.06F
MINERAL POINT  NOT AVBL
MADISON        SUNNY     65  46  50 E9        30.05F
MIDDLETON      NOT AVBL
WATERTOWN      NOT AVBL
MONROE         NOT AVBL
JANESVILLE     SUNNY     66  50  55 E8        30.04S
$$

WIZ051-052-058>065-066-070>072-021800-
SOUTHEAST WISCONSIN

CITY           SKY/WX    TMP DP  RH WIND       PRES   REMARKS
MILWAUKEE      MOSUNNY   61  50  67 NE10      30.06R
WAUKESHA       SUNNY     63  46  55 NE7       30.06S
MILWAUKEE/TIMM SUNNY     64  46  52 NE9       30.06S
RACINE         SUNNY     63  51  65 NE9       30.07R
BURLINGTON     NOT AVBL
KENOSHA        SUNNY     65  52  62 NE9       30.05S
FOND DU LAC    SUNNY     68  48  48 E7        30.06S
SHEBOYGAN      SUNNY     64  48  56 NE10      30.06S
WEST BEND      NOT AVBL
JUNEAU         NOT AVBL
$$

LSZ147-162-021800-
LAKE SUPERIOR

STATION/POSITION TIME  TEMP    WIND        PRES    WAVE
                       AIR SEA DIR/SP/G            HT/PER
                 (UTC) (F)     (DEG/KT/KT) (MB)    (FT/S)
W MID LAKE BUOY  1650   45 39  180/  2/  4 1016.6S   0
DEVILS ISLAND    1700   63     230/  5/  8 1016.0F
SAXON HARBOR     1640   73     190/  8/  9 1016.3F
$$

LMZ867-665-643>646-021800-
LAKE MICHIGAN

STATION/POSITION TIME  TEMP    WIND        PRES    WAVE
                       AIR SEA DIR/SP/G            HT/PER
                 (UTC) (F)     (DEG/KT/KT) (MB)    (FT/S)
CHAMBERS ISLAND  1600   66      10/  3/  4 1018.6S
N MID LAKE BUOY  1650   53 52   80/  2/  2 1018.6F   0
NORTHPORT PIER   1600   60     340/  4/  4 1018.3F
SISTER BAY       1629   64     340/  9/ 10   N/A
ALGOMA LAKESHORE 1610           80/  8/  9   N/A
KEWAUNEE LAKESHO 1700   61      40/  5/  7 1017.9R
SHEBOYGAN LAKESH 1700   56      20/ 10/ 11 1018.6R
PORT WASHINGTON  1640   60      40/  8/ 10 1018.6S
ATWATER BUOY     1700   56      20/ 10/ 12 1019.2R
MILWAUKEE LAKESH 1700   56      40/ 11/ 12   N/A
KENOSHA   LAKESH 1700   56      20/ 13/ 14 1017.3S
$$

TC  - TEMPERATURE IN CELSIUS
VSB - VISIBILITY IN STATUTE MILES
WCI - WIND CHILL INDEX
HX  - HEAT INDEX




USA.gov is the U.S. government's official web portal to all federal, state and local government web resources and services.